Location: Eastlake (historical)
(39.0077°N, 122.6678°W)
Time: 05:58:00
(UTC+00:00)

Cosmos 1538 Rocket - Visible Passes

Search period start: 17 April 2021 00:00
Search period end: 27 April 2021 00:00
Orbit: 751 x 792 km, 74.0° (Epoch: 16 April)

Date Brightness Start Highest point End Pass type
(mag) Time Alt. Az. Time Alt. Az. Time Alt. Az.
17 Apr 6.0 09:18:01 10° N 09:21:37 24° NE 09:21:37 24° NE visible
17 Apr 5.6 10:59:42 10° NW 11:01:55 23° NW 11:01:55 23° NW visible
18 Apr 6.5 08:43:00 10° NNE 08:45:52 16° NE 08:45:52 16° NE visible
18 Apr 5.5 10:23:35 10° NNW 10:26:10 29° NNW 10:26:10 29° NNW visible
19 Apr 5.6 09:47:41 10° NNW 09:50:29 31° N 09:50:29 31° N visible
20 Apr 5.8 09:12:00 10° N 09:14:53 29° NNE 09:14:53 29° NNE visible
20 Apr 6.4 10:54:54 10° NW 10:55:11 11° NW 10:55:11 11° NW visible
21 Apr 6.2 08:36:34 10° N 08:39:19 22° NNE 08:39:19 22° NNE visible
21 Apr 6.1 10:18:23 10° NW 10:19:38 17° NW 10:19:38 17° NW visible
22 Apr 6.5 08:01:28 10° NNE 08:03:48 16° NE 08:03:48 16° NE visible
22 Apr 6.0 09:42:13 10° NNW 09:44:07 22° NNW 09:44:07 22° NNW visible
23 Apr 6.8 07:27:42 10° NE 07:28:19 10° NE 07:28:19 10° NE visible
23 Apr 5.9 09:06:18 10° NNW 09:08:38 26° NNW 09:08:38 26° NNW visible
24 Apr 5.9 08:30:36 10° N 08:33:12 27° N 08:33:12 27° N visible
25 Apr 6.1 07:55:07 10° N 07:57:47 23° NNE 07:57:47 23° NNE visible
25 Apr 6.3 09:37:04 10° NW 09:38:06 15° NW 09:38:06 15° NW visible
26 Apr 6.3 07:19:57 10° NNE 07:22:23 17° NE 07:22:23 17° NE visible
26 Apr 6.1 09:00:53 10° NNW 09:02:43 22° NNW 09:02:43 22° NNW visible
